Time,TemperatureF,DewpointF,PressureIn,WindDirection,WindDirectionDegrees,WindSpeedMPH,WindSpeedGustMPH,Humidity,HourlyPrecipIn,Conditions,Clouds,dailyrainin,SoftwareType,DateUTC
2013-01-11 00:02:00,51.0,49.0,29.83,NE,38,0.0,2.0,93,0.00,,,0.07,,2013-01-10 23:02:00,
2013-01-11 00:12:00,52.0,50.0,29.83,NE,38,2.0,3.0,92,0.00,,,0.07,,2013-01-10 23:12:00,
2013-01-11 00:22:00,52.0,50.0,29.83,NE,38,2.0,3.0,92,0.00,,,0.07,,2013-01-10 23:22:00,
2013-01-11 00:32:00,52.0,50.0,29.82,NE,38,3.0,3.0,92,0.00,,,0.07,,2013-01-10 23:32:00,
2013-01-11 00:42:00,52.0,50.0,29.82,NE,38,3.0,3.0,92,0.00,,,0.07,,2013-01-10 23:42:00,
2013-01-11 01:02:00,52.0,50.0,29.82,NE,38,0.0,3.0,92,0.00,,,0.07,,2013-01-11 00:02:00,
2013-01-11 01:12:00,53.0,51.0,29.82,WSW,247,3.0,4.0,92,0.00,,,0.07,,2013-01-11 00:12:00,
2013-01-11 01:22:00,53.0,51.0,29.82,WSW,247,3.0,4.0,92,0.00,,,0.07,,2013-01-11 00:22:00,
2013-01-11 01:32:00,53.0,50.0,29.82,WNW,302,3.0,4.0,91,0.00,,,0.07,,2013-01-11 00:32:00,
2013-01-11 01:42:00,53.0,50.0,29.82,WNW,302,3.0,4.0,91,0.00,,,0.07,,2013-01-11 00:42:00,
2013-01-11 01:52:00,53.0,50.0,29.82,WNW,302,2.0,4.0,91,0.00,,,0.07,,2013-01-11 00:52:00,
2013-01-11 02:02:00,53.0,50.0,29.82,West,281,8.0,15.0,90,0.00,,,0.07,,2013-01-11 01:02:00,
2013-01-11 02:12:00,54.0,51.0,29.82,NW,312,3.0,12.0,90,0.00,,,0.07,,2013-01-11 01:12:00,
2013-01-11 02:22:00,54.0,51.0,29.82,NW,312,3.0,12.0,90,0.00,,,0.07,,2013-01-11 01:22:00,
2013-01-11 02:33:00,53.0,50.0,29.82,NW,309,7.0,7.0,90,0.00,,,0.07,,2013-01-11 01:33:00,
2013-01-11 02:42:00,53.0,50.0,29.82,NW,309,7.0,7.0,90,0.00,,,0.07,,2013-01-11 01:42:00,
2013-01-11 02:52:00,53.0,50.0,29.82,NW,309,7.0,7.0,90,0.00,,,0.07,,2013-01-11 01:52:00,
2013-01-11 03:02:00,53.0,50.0,29.82,WNW,284,7.0,11.0,88,0.00,,,0.07,,2013-01-11 02:02:00,
2013-01-11 03:12:00,53.0,50.0,29.82,West,273,7.0,10.0,88,0.00,,,0.07,,2013-01-11 02:12:00,
2013-01-11 03:22:00,53.0,50.0,29.82,West,273,7.0,10.0,88,0.00,,,0.07,,2013-01-11 02:22:00,
2013-01-11 03:32:00,53.0,49.0,29.82,WNW,284,6.0,11.0,87,0.00,,,0.07,,2013-01-11 02:32:00,
2013-01-11 03:42:00,53.0,49.0,29.82,WNW,284,6.0,11.0,87,0.00,,,0.07,,2013-01-11 02:42:00,
2013-01-11 03:52:00,53.0,49.0,29.82,WNW,284,6.0,11.0,87,0.00,,,0.07,,2013-01-11 02:52:00,
2013-01-11 04:02:00,53.0,49.0,29.81,WNW,293,6.0,8.0,87,0.00,,,0.07,,2013-01-11 03:02:00,
2013-01-11 04:12:00,53.0,49.0,29.81,WNW,293,6.0,8.0,87,0.00,,,0.07,,2013-01-11 03:12:00,
2013-01-11 04:22:00,53.0,49.0,29.81,WNW,293,6.0,8.0,87,0.00,,,0.07,,2013-01-11 03:22:00,
2013-01-11 04:33:00,52.0,48.0,29.80,WNW,301,2.0,3.0,87,0.00,,,0.07,,2013-01-11 03:33:00,
2013-01-11 04:42:00,52.0,48.0,29.80,WNW,301,2.0,3.0,87,0.00,,,0.07,,2013-01-11 03:42:00,
2013-01-11 04:53:00,52.0,48.0,29.80,NW,312,3.0,4.0,87,0.00,,,0.07,,2013-01-11 03:53:00,
2013-01-11 05:02:00,53.0,49.0,29.80,NW,325,3.0,5.0,87,0.00,,,0.07,,2013-01-11 04:02:00,
2013-01-11 05:11:00,52.0,48.0,29.80,NW,325,1.0,3.0,87,0.00,,,0.07,,2013-01-11 04:11:00,
2013-01-11 05:22:00,52.0,48.0,29.80,NW,325,1.0,3.0,87,0.00,,,0.07,,2013-01-11 04:22:00,
2013-01-11 05:32:00,52.0,48.0,29.80,NW,325,1.0,3.0,87,0.00,,,0.07,,2013-01-11 04:32:00,
2013-01-11 05:42:00,52.0,48.0,29.80,NW,325,1.0,3.0,87,0.00,,,0.07,,2013-01-11 04:42:00,
2013-01-11 05:52:00,52.0,49.0,29.80,NW,325,2.0,3.0,88,0.00,,,0.07,,2013-01-11 04:52:00,
2013-01-11 06:03:00,52.0,49.0,29.80,NW,325,4.0,4.0,88,0.00,,,0.07,,2013-01-11 05:03:00,
2013-01-11 06:12:00,52.0,49.0,29.80,NW,325,4.0,4.0,88,0.00,,,0.07,,2013-01-11 05:12:00,
2013-01-11 06:22:00,52.0,49.0,29.80,NW,321,2.0,4.0,88,0.00,,,0.07,,2013-01-11 05:22:00,
2013-01-11 06:33:00,52.0,48.0,29.80,NW,321,3.0,3.0,87,0.00,,,0.07,,2013-01-11 05:33:00,
2013-01-11 06:42:00,52.0,48.0,29.80,NW,321,3.0,3.0,87,0.00,,,0.07,,2013-01-11 05:42:00,
2013-01-11 06:52:00,52.0,48.0,29.80,WNW,301,4.0,6.0,87,0.00,,,0.07,,2013-01-11 05:52:00,
2013-01-11 07:02:00,52.0,48.0,29.80,NW,308,3.0,3.0,87,0.00,,,0.07,,2013-01-11 06:02:00,
2013-01-11 07:11:00,52.0,48.0,29.80,NW,308,3.0,3.0,87,0.00,,,0.07,,2013-01-11 06:11:00,
2013-01-11 07:22:00,52.0,48.0,29.81,NW,309,2.0,3.0,87,0.00,,,0.07,,2013-01-11 06:22:00,
2013-01-11 07:32:00,52.0,48.0,29.81,NW,309,3.0,4.0,86,0.00,,,0.07,,2013-01-11 06:32:00,
2013-01-11 07:42:00,52.0,48.0,29.81,NW,309,3.0,4.0,86,0.00,,,0.07,,2013-01-11 06:42:00,
2013-01-11 07:52:00,52.0,48.0,29.81,NW,310,3.0,3.0,86,0.00,,,0.07,,2013-01-11 06:52:00,
2013-01-11 08:02:00,53.0,49.0,29.82,NNW,327,1.0,3.0,86,0.00,,,0.07,,2013-01-11 07:02:00,
2013-01-11 08:11:00,52.0,48.0,29.82,NNW,327,3.0,3.0,86,0.00,,,0.07,,2013-01-11 07:11:00,
2013-01-11 08:22:00,52.0,48.0,29.82,NNW,327,3.0,3.0,86,0.00,,,0.07,,2013-01-11 07:22:00,
2013-01-11 08:32:00,53.0,49.0,29.83,NNW,327,3.0,5.0,86,0.00,,,0.07,,2013-01-11 07:32:00,
2013-01-11 08:42:00,53.0,49.0,29.83,NNW,327,3.0,3.0,86,0.00,,,0.07,,2013-01-11 07:42:00,
2013-01-11 08:52:00,53.0,49.0,29.83,NNW,327,3.0,3.0,86,0.00,,,0.07,,2013-01-11 07:52:00,
2013-01-11 09:02:00,53.0,49.0,29.83,NW,325,3.0,3.0,85,0.00,,,0.07,,2013-01-11 08:02:00,
2013-01-11 09:11:00,53.0,49.0,29.83,NNW,327,3.0,4.0,85,0.00,,,0.07,,2013-01-11 08:11:00,
2013-01-11 09:22:00,53.0,49.0,29.83,NNW,327,3.0,4.0,85,0.00,,,0.07,,2013-01-11 08:22:00,
2013-01-11 09:32:00,54.0,50.0,29.83,NNW,327,2.0,3.0,85,0.00,,,0.07,,2013-01-11 08:32:00,
2013-01-11 09:42:00,54.0,50.0,29.83,NNW,327,2.0,3.0,85,0.00,,,0.07,,2013-01-11 08:42:00,
2013-01-11 09:52:00,54.0,50.0,29.84,NNW,327,3.0,3.0,85,0.00,,,0.07,,2013-01-11 08:52:00,
2013-01-11 10:02:00,54.0,49.0,29.82,NNW,332,1.0,3.0,84,0.00,,,0.07,,2013-01-11 09:02:00,
2013-01-11 10:11:00,54.0,49.0,29.82,NNW,332,1.0,3.0,84,0.00,,,0.07,,2013-01-11 09:11:00,
2013-01-11 10:22:00,55.0,50.0,29.83,NNW,332,0.0,2.0,83,0.00,,,0.07,,2013-01-11 09:22:00,
2013-01-11 10:32:00,56.0,50.0,29.82,West,259,2.0,4.0,80,0.00,,,0.07,,2013-01-11 09:32:00,
2013-01-11 10:42:00,56.0,50.0,29.82,West,259,2.0,4.0,80,0.00,,,0.07,,2013-01-11 09:42:00,
2013-01-11 10:52:00,57.0,51.0,29.82,WSW,257,1.0,3.0,79,0.00,,,0.07,,2013-01-11 09:52:00,
2013-01-11 11:02:00,57.0,50.0,29.81,SSW,194,3.0,3.0,77,0.00,,,0.07,,2013-01-11 10:02:00,
2013-01-11 11:11:00,57.0,50.0,29.81,SSW,194,3.0,3.0,77,0.00,,,0.07,,2013-01-11 10:11:00,
2013-01-11 11:22:00,57.0,50.0,29.81,SSW,205,5.0,5.0,77,0.00,,,0.07,,2013-01-11 10:22:00,
2013-01-11 11:32:00,56.0,49.0,29.81,South,186,3.0,5.0,77,0.00,,,0.07,,2013-01-11 10:32:00,
2013-01-11 11:42:00,56.0,49.0,29.81,South,186,3.0,5.0,77,0.00,,,0.07,,2013-01-11 10:42:00,
2013-01-11 11:52:00,56.0,49.0,29.80,SE,141,3.0,5.0,78,0.00,,,0.07,,2013-01-11 10:52:00,
2013-01-11 12:02:00,56.0,50.0,29.79,South,185,2.0,6.0,79,0.00,,,0.07,,2013-01-11 11:02:00,
2013-01-11 12:11:00,56.0,50.0,29.79,South,185,2.0,6.0,79,0.00,,,0.07,,2013-01-11 11:11:00,
2013-01-11 12:22:00,56.0,50.0,29.79,SSE,165,5.0,6.0,79,0.00,,,0.07,,2013-01-11 11:22:00,
2013-01-11 12:32:00,56.0,49.0,29.78,SSW,200,3.0,6.0,78,0.00,,,0.07,,2013-01-11 11:32:00,
2013-01-11 12:42:00,56.0,49.0,29.78,SSW,200,3.0,6.0,78,0.00,,,0.07,,2013-01-11 11:42:00,
2013-01-11 12:52:00,56.0,50.0,29.78,WSW,238,10.0,10.0,79,0.00,,,0.07,,2013-01-11 11:52:00,
2013-01-11 13:02:00,56.0,50.0,29.77,WSW,241,6.0,8.0,80,0.00,,,0.07,,2013-01-11 12:02:00,
2013-01-11 13:12:00,56.0,50.0,29.77,WSW,241,6.0,8.0,80,0.00,,,0.07,,2013-01-11 12:12:00,
2013-01-11 13:22:00,57.0,51.0,29.76,South,178,3.0,5.0,79,0.00,,,0.07,,2013-01-11 12:22:00,
2013-01-11 13:32:00,57.0,50.0,29.76,SW,234,4.0,4.0,78,0.00,,,0.07,,2013-01-11 12:32:00,
2013-01-11 13:42:00,57.0,50.0,29.76,SW,234,4.0,4.0,78,0.00,,,0.07,,2013-01-11 12:42:00,
2013-01-11 13:52:00,57.0,50.0,29.75,West,265,6.0,10.0,77,0.00,,,0.07,,2013-01-11 12:52:00,
2013-01-11 14:02:00,55.0,50.0,29.75,WNW,284,14.0,19.0,84,0.04,,,0.10,,2013-01-11 13:02:00,
2013-01-11 14:12:00,55.0,50.0,29.75,WNW,284,14.0,19.0,84,0.04,,,0.10,,2013-01-11 13:12:00,
2013-01-11 14:22:00,56.0,51.0,29.75,West,269,9.0,20.0,83,0.04,,,0.11,,2013-01-11 13:22:00,
2013-01-11 14:32:00,56.0,48.0,29.75,West,265,13.0,22.0,75,0.04,,,0.10,,2013-01-11 13:32:00,
2013-01-11 14:42:00,56.0,48.0,29.75,West,265,13.0,22.0,75,0.04,,,0.10,,2013-01-11 13:42:00,
2013-01-11 14:52:00,57.0,48.0,29.75,SW,218,16.0,28.0,72,0.04,,,0.10,,2013-01-11 13:52:00,
2013-01-11 15:02:00,56.0,44.0,29.75,West,260,10.0,25.0,65,0.02,,,0.10,,2013-01-11 14:02:00,
2013-01-11 15:11:00,56.0,45.0,29.75,West,276,20.0,28.0,66,0.00,,,0.10,,2013-01-11 14:11:00,
2013-01-11 15:22:00,56.0,45.0,29.75,West,276,20.0,28.0,66,0.00,,,0.10,,2013-01-11 14:22:00,
2013-01-11 15:33:00,56.0,46.0,29.75,West,275,13.0,23.0,68,0.00,,,0.10,,2013-01-11 14:33:00,
2013-01-11 15:42:00,56.0,45.0,29.75,WSW,237,10.0,23.0,67,0.00,,,0.10,,2013-01-11 14:42:00,
2013-01-11 15:53:00,56.0,45.0,29.75,WSW,237,10.0,23.0,67,0.00,,,0.10,,2013-01-11 14:53:00,
2013-01-11 16:03:00,56.0,41.0,29.75,West,274,18.0,26.0,58,0.00,,,0.10,,2013-01-11 15:03:00,
2013-01-11 16:12:00,54.0,43.0,29.75,WNW,290,19.0,23.0,67,0.00,,,0.10,,2013-01-11 15:12:00,
2013-01-11 16:22:00,54.0,43.0,29.75,WNW,290,19.0,23.0,67,0.00,,,0.10,,2013-01-11 15:22:00,
2013-01-11 16:32:00,56.0,43.0,29.75,WNW,285,14.0,23.0,62,0.00,,,0.09,,2013-01-11 15:32:00,
2013-01-11 16:42:00,56.0,43.0,29.75,WNW,285,14.0,23.0,62,0.00,,,0.09,,2013-01-11 15:42:00,
2013-01-11 16:52:00,55.0,43.0,29.75,West,274,12.0,19.0,63,0.00,,,0.07,,2013-01-11 15:52:00,
2013-01-11 17:02:00,55.0,41.0,29.75,West,281,21.0,25.0,59,0.00,,,0.07,,2013-01-11 16:02:00,
2013-01-11 17:12:00,55.0,42.0,29.74,West,279,17.0,24.0,61,0.00,,,0.07,,2013-01-11 16:12:00,
2013-01-11 17:22:00,55.0,42.0,29.74,West,279,17.0,24.0,61,0.00,,,0.07,,2013-01-11 16:22:00,
2013-01-11 17:32:00,55.0,43.0,29.74,WSW,254,16.0,25.0,64,0.00,,,0.07,,2013-01-11 16:32:00,
2013-01-11 17:42:00,54.0,43.0,29.74,WSW,248,10.0,19.0,67,0.00,,,0.07,,2013-01-11 16:42:00,
2013-01-11 17:52:00,54.0,43.0,29.74,WSW,248,10.0,19.0,67,0.00,,,0.07,,2013-01-11 16:52:00,
2013-01-11 18:03:00,54.0,43.0,29.74,West,267,10.0,25.0,66,0.00,,,0.06,,2013-01-11 17:03:00,
2013-01-11 18:12:00,52.0,44.0,29.74,WNW,284,13.0,26.0,74,0.03,,,0.08,,2013-01-11 17:12:00,
2013-01-11 18:22:00,52.0,44.0,29.74,WNW,284,13.0,26.0,74,0.03,,,0.08,,2013-01-11 17:22:00,
2013-01-11 18:33:00,51.0,44.0,29.74,West,267,15.0,26.0,76,0.08,,,0.13,,2013-01-11 17:33:00,
2013-01-11 18:42:00,51.0,44.0,29.74,West,267,15.0,26.0,76,0.08,,,0.13,,2013-01-11 17:42:00,
2013-01-11 18:52:00,51.0,45.0,29.74,WSW,244,10.0,18.0,80,0.08,,,0.13,,2013-01-11 17:52:00,
2013-01-11 19:02:00,51.0,45.0,29.74,WNW,284,3.0,21.0,80,0.08,,,0.13,,2013-01-11 18:02:00,
2013-01-11 19:12:00,51.0,45.0,29.74,WNW,284,3.0,21.0,80,0.08,,,0.13,,2013-01-11 18:12:00,
2013-01-11 19:22:00,52.0,46.0,29.73,WNW,294,4.0,16.0,79,0.06,,,0.13,,2013-01-11 18:22:00,
2013-01-11 19:32:00,52.0,44.0,29.72,West,280,6.0,8.0,73,0.01,,,0.13,,2013-01-11 18:32:00,
2013-01-11 19:42:00,52.0,44.0,29.72,West,280,6.0,8.0,73,0.01,,,0.13,,2013-01-11 18:42:00,
2013-01-11 19:53:00,52.0,44.0,29.72,WNW,291,7.0,8.0,75,0.00,,,0.13,,2013-01-11 18:53:00,
2013-01-11 20:02:00,53.0,45.0,29.72,West,277,14.0,15.0,75,0.00,,,0.13,,2013-01-11 19:02:00,
2013-01-11 20:12:00,53.0,45.0,29.72,West,277,14.0,15.0,75,0.00,,,0.13,,2013-01-11 19:12:00,
2013-01-11 20:22:00,53.0,46.0,29.72,NW,309,6.0,17.0,76,0.00,,,0.13,,2013-01-11 19:22:00,
2013-01-11 20:32:00,53.0,45.0,29.72,West,271,11.0,15.0,75,0.00,,,0.13,,2013-01-11 19:32:00,
2013-01-11 20:42:00,53.0,45.0,29.72,West,271,11.0,15.0,75,0.00,,,0.13,,2013-01-11 19:42:00,
2013-01-11 20:52:00,53.0,46.0,29.72,NW,323,5.0,14.0,76,0.00,,,0.13,,2013-01-11 19:52:00,
2013-01-11 21:02:00,52.0,45.0,29.73,NW,326,2.0,4.0,78,0.00,,,0.13,,2013-01-11 20:02:00,
2013-01-11 21:11:00,52.0,45.0,29.73,NW,326,2.0,4.0,78,0.00,,,0.13,,2013-01-11 20:11:00,
2013-01-11 21:22:00,52.0,46.0,29.72,NW,315,3.0,4.0,79,0.00,,,0.13,,2013-01-11 20:22:00,
2013-01-11 21:32:00,52.0,45.0,29.73,NW,321,3.0,3.0,77,0.00,,,0.13,,2013-01-11 20:32:00,
2013-01-11 21:42:00,52.0,45.0,29.73,NW,321,3.0,3.0,77,0.00,,,0.13,,2013-01-11 20:42:00,
2013-01-11 21:52:00,52.0,45.0,29.73,North,355,3.0,6.0,76,0.00,,,0.13,,2013-01-11 20:52:00,
2013-01-11 22:02:00,51.0,44.0,29.74,North,355,3.0,6.0,76,0.00,,,0.13,,2013-01-11 21:02:00,
2013-01-11 22:12:00,52.0,44.0,29.75,NNE,17,3.0,6.0,75,0.00,,,0.13,,2013-01-11 21:12:00,
2013-01-11 22:22:00,52.0,44.0,29.75,NNE,17,3.0,6.0,75,0.00,,,0.13,,2013-01-11 21:22:00,
2013-01-11 22:32:00,50.0,43.0,29.75,NNE,23,3.0,5.0,78,0.00,,,0.12,,2013-01-11 21:32:00,
2013-01-11 22:42:00,50.0,43.0,29.75,NNE,23,3.0,5.0,78,0.00,,,0.12,,2013-01-11 21:42:00,
2013-01-11 22:52:00,50.0,44.0,29.76,NNE,23,4.0,4.0,79,0.00,,,0.12,,2013-01-11 21:52:00,
2013-01-11 23:02:00,51.0,44.0,29.77,NNE,19,4.0,7.0,78,0.00,,,0.12,,2013-01-11 22:02:00,
2013-01-11 23:12:00,50.0,43.0,29.77,NNE,22,3.0,4.0,77,0.00,,,0.12,,2013-01-11 22:12:00,
2013-01-11 23:22:00,50.0,43.0,29.77,NNE,22,3.0,4.0,77,0.00,,,0.12,,2013-01-11 22:22:00,
2013-01-11 23:32:00,50.0,43.0,29.77,NNE,30,3.0,5.0,78,0.00,,,0.12,,2013-01-11 22:32:00,
2013-01-11 23:42:00,50.0,43.0,29.77,NNE,30,3.0,5.0,78,0.00,,,0.12,,2013-01-11 22:42:00,
2013-01-11 23:52:00,49.0,43.0,29.78,NNE,30,4.0,5.0,79,0.00,,,0.12,,2013-01-11 22:52:00,